This is the latest recevied weather packets stored in our database for station/object KB1JLI. If no packets are shown the sender has not sent any weather packets the latest 10 day(s).
| Time | Temp. | Humidity | Pressure | Rain* | Wind** | Luminosity | Snow |
|---|---|---|---|---|---|---|---|
| 1777417958 | 7.78° C | 67% | 1021 hPa | 0 mm | - | 11 W/m² | - |
| 1777417655 | 8.33° C | 65% | 1021.1 hPa | 0 mm | - | 13 W/m² | - |
| 1777417350 | 8.33° C | 64% | 1021.2 hPa | 0 mm | - | 16 W/m² | - |
| 1777417047 | 8.33° C | 63% | 1021 hPa | 0 mm | - | 19 W/m² | - |
| 1777416742 | 8.33° C | 62% | 1021.1 hPa | 0 mm | - | 22 W/m² | - |
| 1777416438 | 8.33° C | 61% | 1021.3 hPa | 0 mm | - | 25 W/m² | - |
| 1777416134 | 8.89° C | 59% | 1021.1 hPa | 0 mm | - | 30 W/m² | - |
| 1777415829 | 8.89° C | 56% | 1021.4 hPa | 0 mm | - | 36 W/m² | - |
| 1777415525 | 8.89° C | 54% | 1021.5 hPa | 0 mm | - | 44 W/m² | - |
| 1777415221 | 8.89° C | 55% | 1021.6 hPa | 0 mm | - | 52 W/m² | - |
| 1777414915 | 9.44° C | 53% | 1021.6 hPa | 0 mm | - | 59 W/m² | - |
| 1777414614 | 9.44° C | 50% | 1021.6 hPa | 0 mm | - | 62 W/m² | - |
| 1777414309 | 10° C | 48% | 1021.5 hPa | 0 mm | - | 65 W/m² | - |
| 1777414004 | 10° C | 47% | 1021.8 hPa | 0 mm | - | 66 W/m² | - |
| 1777413700 | 10° C | 46% | 1021.9 hPa | 0 mm | - | 63 W/m² | - |
| 1777413391 | 10° C | 42% | 1021.8 hPa | 0 mm | - | 58 W/m² | - |
| 1777413086 | 10° C | 40% | 1021.7 hPa | 0 mm | - | 51 W/m² | - |
| 1777412781 | 10° C | 39% | 1021.7 hPa | 0 mm | - | 46 W/m² | - |
| 1777412481 | 10.56° C | 39% | 1021.7 hPa | 0 mm | - | 41 W/m² | - |
| 1777412178 | 10.56° C | 38% | 1021.5 hPa | 0 mm | - | 39 W/m² | - |
| 1777411875 | 11.11° C | 35% | 1021.6 hPa | 0 mm | - | 40 W/m² | - |
| 1777411573 | 11.11° C | 34% | 1021.6 hPa | 0 mm | - | 69 W/m² | - |
| 1777411269 | 11.11° C | 35% | 1021.4 hPa | 0 mm | - | 43 W/m² | - |
| 1777410962 | 11.11° C | 33% | 1021.4 hPa | 0 mm | - | 58 W/m² | - |
| 1777410662 | 11.67° C | 33% | 1021.7 hPa | 0 mm | - | 48 W/m² | - |
* Rain latest hour (hover to see other rain measurements)
** Current wind speed in m/s (hover to see current wind gust speed)